sat.trackr.live / text

‹ back to catalog

STARLINK-32727

NORAD 62828 · 2025-018Y

PAYLOAD ACTIVE UNKNOWN

§ Identity

Operator
Country
US
Launch date
2025-01-24
Launch site
AFWTR
Launch vehicle
Mass (kg)
RCS (m²)

Purposes: comms

External: N2YO · Heavens-Above · Gunter

§ Orbital elements

Epoch: 2026-09-21T20:35:35.871648Z

Period
93.85 min
Inclination
53.1575°
Eccentricity
0.0001006
Mean motion
15.34405528 rev/d
Perigee alt
462.0 km
Apogee alt
463.4 km
Semi-major
6,840.8 km
B*
1.9170e-4
RAAN
111.2483°
Arg perigee
96.8991°
Mean anomaly
263.2126°
Rev number
9,425

§ Raw data

STARLINK-327271 62828U 25018Y   26264.85805407  .00006107  00000+0  19170-3 0  99932 62828  53.1575 111.2483 0001006  96.8991 263.2126 15.34405528 94252

JSON: /api/v1/satellites/62828 · /tle

For live sub-satellite position, see the globe view (requires WebGL).

§ Visibility from observer

Set your observer location to see the next 7 days of passes ≥ 10°. The values pass through the URL so the page stays shareable.

No JS? Fill the form by hand. The geolocation button needs JavaScript.